Location: Amsterdam
(30.7274°N, 84.4357°W)
Time: 18:50:17
(UTC+00:00)

Tiros 1 - Pass Details

Date: 20 February 2026
Orbit: 618 x 649 km, 48.4° (Epoch: 10 March)

Event Time Altitude Azimuth Distance (km) Brightness Sun altitude
Rises 19:01:24 0° 318° (NW) 2,888 10.3 45.3°
Reaches altitude 10° 19:03:52 10° 327° (NNW) 1,979 9.5 45.1°
Maximum altitude 19:08:03 36° 34° (NE) 975 8.0 44.7°
Drops below altitude 10° 19:12:15 10° 102° (ESE) 1,972 9.6 44.2°
Sets 19:14:42 0° 111° (ESE) 2,877 10.4 44.0°
